GBGFT EGTC-EGTC

Flight info

Callsign GBGFT
Flight time N/A
Altitude 4000
Route VFR LOCAL FLIGHT CIRCUITS
Aircraft PA34/L-SDFRY/S

Departure

Time 2026-05-04 13:04
Airport Cranfield Airport (EGTC)

Arrival

Time N/A
Airport Cranfield Airport (EGTC)
Time Latitude Longitude Altitude Speed Heading
2026-05-04 12:42 52.07384 -0.62335 350 ft 0 kts 151°
2026-05-04 12:54 52.07379 -0.62330 350 ft 1 kts 149°
2026-05-04 12:54 52.07364 -0.62316 351 ft 3 kts 149°
2026-05-04 12:54 52.07339 -0.62310 351 ft 3 kts 197°
2026-05-04 12:55 52.07319 -0.62335 352 ft 0 kts 236°
2026-05-04 12:55 52.07307 -0.62362 352 ft 6 kts 230°
2026-05-04 12:55 52.07264 -0.62448 353 ft 12 kts 217°
2026-05-04 12:55 52.07190 -0.62540 354 ft 14 kts 216°
2026-05-04 12:56 52.07093 -0.62596 355 ft 16 kts 189°
2026-05-04 12:56 52.06996 -0.62643 358 ft 15 kts 242°
2026-05-04 12:56 52.06944 -0.62795 358 ft 14 kts 241°
2026-05-04 12:56 52.06861 -0.62889 358 ft 11 kts 183°
2026-05-04 12:57 52.06780 -0.62858 358 ft 12 kts 140°
2026-05-04 12:57 52.06719 -0.62745 358 ft 13 kts 126°
2026-05-04 12:57 52.06659 -0.62623 358 ft 14 kts 129°
2026-05-04 12:57 52.06608 -0.62521 359 ft 7 kts 126°
2026-05-04 12:58 52.06597 -0.62498 360 ft 0 kts 128°
2026-05-04 13:03 52.06584 -0.62471 361 ft 6 kts 128°
2026-05-04 13:03 52.06536 -0.62373 361 ft 14 kts 117°
2026-05-04 13:03 52.06589 -0.62291 361 ft 10 kts 31°
2026-05-04 13:04 52.06791 -0.62086 359 ft 72 kts 31°
2026-05-04 13:04 52.07286 -0.61572 637 ft 86 kts 34°
2026-05-04 13:04 52.07730 -0.60982 1014 ft 85 kts 42°
2026-05-04 13:04 52.08203 -0.60370 1379 ft 89 kts 37°
2026-05-04 13:05 52.08712 -0.59861 1694 ft 86 kts 14°
2026-05-04 13:05 52.09251 -0.60200 1943 ft 98 kts 308°
2026-05-04 13:05 52.09433 -0.61334 2111 ft 111 kts 284°
2026-05-04 13:05 52.09566 -0.62576 2168 ft 110 kts 284°
2026-05-04 13:06 52.09683 -0.63804 2181 ft 108 kts 285°
2026-05-04 13:06 52.09930 -0.64938 2163 ft 107 kts 301°
2026-05-04 13:06 52.10027 -0.66129 2144 ft 114 kts 255°
2026-05-04 13:06 52.09549 -0.67180 2129 ft 115 kts 224°
2026-05-04 13:07 52.08963 -0.68072 2108 ft 116 kts 221°
2026-05-04 13:07 52.08355 -0.68922 2054 ft 116 kts 221°
2026-05-04 13:07 52.07733 -0.69714 1966 ft 111 kts 216°
2026-05-04 13:07 52.07083 -0.70320 1865 ft 106 kts 190°
2026-05-04 13:08 52.06380 -0.70085 1737 ft 102 kts 143°
2026-05-04 13:08 52.05843 -0.69390 1643 ft 101 kts 132°
2026-05-04 13:08 52.05357 -0.68626 1657 ft 93 kts 128°
2026-05-04 13:08 52.04930 -0.67859 1615 ft 90 kts 126°
2026-05-04 13:09 52.04508 -0.67067 1511 ft 92 kts 126°
2026-05-04 13:09 52.04153 -0.66238 1437 ft 89 kts 118°
2026-05-04 13:09 52.03982 -0.65340 1383 ft 81 kts 77°
2026-05-04 13:09 52.04266 -0.64571 1224 ft 79 kts 40°
2026-05-04 13:10 52.04711 -0.64114 1046 ft 74 kts 29°
2026-05-04 13:10 52.05159 -0.63714 861 ft 76 kts 29°
2026-05-04 13:10 52.05616 -0.63284 715 ft 76 kts 31°
2026-05-04 13:10 52.06052 -0.62836 567 ft 72 kts 32°
2026-05-04 13:11 52.06473 -0.62410 429 ft 71 kts 33°
2026-05-04 13:11 52.06866 -0.62012 357 ft 56 kts 33°
2026-05-04 13:11 52.07227 -0.61652 377 ft 79 kts 31°
2026-05-04 13:11 52.07673 -0.61208 812 ft 77 kts 35°
2026-05-04 13:12 52.08079 -0.60655 1211 ft 83 kts 43°
2026-05-04 13:12 52.08537 -0.59991 1571 ft 92 kts 41°
2026-05-04 13:12 52.09048 -0.59334 1803 ft 97 kts 28°
2026-05-04 13:12 52.09722 -0.59356 1987 ft 108 kts 336°
2026-05-04 13:13 52.10174 -0.60333 2183 ft 117 kts 286°
2026-05-04 13:13 52.10361 -0.61659 2323 ft 124 kts 285°
2026-05-04 13:13 52.10576 -0.63043 2471 ft 127 kts 289°
2026-05-04 13:13 52.10801 -0.64433 2539 ft 127 kts 287°
2026-05-04 13:14 52.10991 -0.65805 2539 ft 121 kts 275°
2026-05-04 13:14 52.10654 -0.66995 2554 ft 121 kts 221°
2026-05-04 13:14 52.09936 -0.67770 2452 ft 127 kts 212°
2026-05-04 13:14 52.09180 -0.68573 2352 ft 130 kts 213°
2026-05-04 13:15 52.08434 -0.69381 2255 ft 123 kts 213°
2026-05-04 13:15 52.07730 -0.70107 2114 ft 118 kts 208°
2026-05-04 13:15 52.06963 -0.70346 1967 ft 111 kts 164°
2026-05-04 13:15 52.06324 -0.69759 1831 ft 104 kts 127°
2026-05-04 13:16 52.05897 -0.68823 1738 ft 100 kts 122°
2026-05-04 13:16 52.05474 -0.67946 1678 ft 95 kts 122°
2026-05-04 13:16 52.05076 -0.67111 1604 ft 93 kts 122°
2026-05-04 13:16 52.04693 -0.66314 1517 ft 88 kts 123°
2026-05-04 13:17 52.04356 -0.65507 1393 ft 82 kts 101°
2026-05-04 13:17 52.04460 -0.64667 1267 ft 78 kts 59°
2026-05-04 13:17 52.04828 -0.64050 1087 ft 77 kts 34°
2026-05-04 13:17 52.05283 -0.63618 874 ft 73 kts 31°
2026-05-04 13:18 52.05705 -0.63169 634 ft 71 kts 32°
2026-05-04 13:18 52.06118 -0.62763 549 ft 67 kts 31°
2026-05-04 13:18 52.06517 -0.62362 443 ft 68 kts 31°
2026-05-04 13:18 52.06903 -0.61977 357 ft 57 kts 32°
2026-05-04 13:19 52.07229 -0.61648 354 ft 73 kts 31°
2026-05-04 13:19 52.07675 -0.61215 734 ft 75 kts 31°
2026-05-04 13:19 52.08146 -0.60747 1057 ft 90 kts 32°
2026-05-04 13:19 52.08690 -0.60215 1335 ft 95 kts 30°
2026-05-04 13:20 52.09286 -0.59671 1577 ft 101 kts 27°
2026-05-04 13:20 52.09900 -0.59129 1874 ft 99 kts 30°
2026-05-04 13:20 52.10481 -0.58594 2151 ft 102 kts 31°
2026-05-04 13:20 52.11095 -0.57849 2249 ft 115 kts 45°
2026-05-04 13:21 52.11626 -0.56834 2390 ft 117 kts 49°
2026-05-04 13:21 52.12169 -0.55874 2433 ft 116 kts 37°
2026-05-04 13:21 52.12843 -0.55138 2425 ft 119 kts 32°
2026-05-04 13:21 52.13556 -0.54410 2425 ft 120 kts 32°
2026-05-04 13:22 52.14265 -0.53693 2425 ft 122 kts 32°
2026-05-04 13:22 52.14999 -0.52951 2424 ft 126 kts 32°
2026-05-04 13:22 52.15752 -0.52195 2422 ft 128 kts 31°
2026-05-04 13:22 52.16511 -0.51435 2424 ft 129 kts 31°
2026-05-04 13:23 52.17287 -0.50656 2419 ft 131 kts 31°
2026-05-04 13:23 52.18071 -0.49872 2423 ft 135 kts 31°
2026-05-04 13:23 52.18884 -0.49058 2422 ft 137 kts 31°
2026-05-04 13:23 52.19691 -0.48247 2421 ft 138 kts 31°
2026-05-04 13:24 52.20517 -0.47414 2422 ft 139 kts 33°
2026-05-04 13:24 52.21331 -0.46588 2421 ft 139 kts 32°
2026-05-04 13:24 52.22154 -0.45757 2420 ft 138 kts 32°
2026-05-04 13:25 52.23798 -0.44092 2419 ft 139 kts 32°
2026-05-04 13:25 52.24611 -0.43271 2420 ft 139 kts 32°
2026-05-04 13:25 52.25441 -0.42434 2419 ft 139 kts 32°
2026-05-04 13:25 52.26268 -0.41603 2419 ft 139 kts 32°
2026-05-04 13:26 52.27021 -0.40632 2423 ft 139 kts 57°
2026-05-04 13:26 52.27152 -0.39104 2430 ft 143 kts 103°
2026-05-04 13:26 52.26732 -0.37622 2423 ft 145 kts 116°
2026-05-04 13:26 52.26244 -0.36166 2418 ft 146 kts 116°
2026-05-04 13:27 52.25757 -0.34717 2419 ft 146 kts 117°
2026-05-04 13:27 52.25321 -0.33210 2420 ft 145 kts 109°
2026-05-04 13:27 52.24975 -0.31679 2420 ft 145 kts 108°
2026-05-04 13:27 52.24610 -0.30141 2424 ft 145 kts 110°
2026-05-04 13:28 52.24302 -0.28609 2347 ft 142 kts 100°
2026-05-04 13:28 52.24098 -0.27055 2180 ft 141 kts 99°
2026-05-04 13:28 52.23922 -0.25491 1970 ft 140 kts 97°
2026-05-04 13:28 52.23734 -0.23930 1941 ft 137 kts 99°
2026-05-04 13:29 52.23567 -0.22424 2012 ft 132 kts 96°
2026-05-04 13:29 52.23430 -0.20940 2000 ft 134 kts 94°
2026-05-04 13:29 52.23167 -0.19490 2029 ft 135 kts 115°
2026-05-04 13:29 52.22614 -0.18274 2070 ft 135 kts 126°
2026-05-04 13:30 52.22007 -0.17092 2091 ft 135 kts 126°
2026-05-04 13:30 52.21401 -0.15915 2134 ft 134 kts 127°
2026-05-04 13:30 52.20791 -0.14738 2110 ft 138 kts 127°
2026-05-04 13:30 52.20150 -0.13575 2031 ft 136 kts 128°
2026-05-04 13:31 52.19553 -0.12411 2000 ft 132 kts 124°
2026-05-04 13:31 52.19058 -0.11213 2019 ft 125 kts 115°
2026-05-04 13:31 52.18905 -0.09861 2053 ft 122 kts 77°
2026-05-04 13:31 52.19045 -0.08485 2074 ft 126 kts 83°
2026-05-04 13:32 52.19013 -0.07044 2060 ft 131 kts 95°
2026-05-04 13:32 52.18824 -0.05561 2054 ft 134 kts 99°
2026-05-04 13:32 52.18688 -0.04108 2142 ft 126 kts 88°
2026-05-04 13:32 52.18763 -0.02660 2060 ft 130 kts 72°
2026-05-04 13:33 52.19027 -0.01268 1911 ft 130 kts 73°
2026-05-04 13:33 52.19157 0.00170 1870 ft 125 kts 84°
2026-05-04 13:33 52.19079 0.01534 1926 ft 117 kts 100°
2026-05-04 13:33 52.18834 0.02790 1884 ft 116 kts 106°
2026-05-04 13:34 52.18512 0.04011 1635 ft 117 kts 110°
2026-05-04 13:34 52.18206 0.05107 1672 ft 96 kts 109°
2026-05-04 13:34 52.17927 0.06042 1677 ft 88 kts 109°
2026-05-04 13:34 52.17664 0.06935 1661 ft 87 kts 108°
2026-05-04 13:35 52.17398 0.07831 1617 ft 88 kts 110°
2026-05-04 13:35 52.16899 0.09653 1517 ft 89 kts 81°
2026-05-04 13:35 52.17062 0.10607 1442 ft 83 kts 66°
2026-05-04 13:36 52.17326 0.11424 1217 ft 81 kts 46°
2026-05-04 13:36 52.17672 0.12096 1082 ft 73 kts 45°
2026-05-04 13:36 52.18015 0.12709 936 ft 74 kts 45°
2026-05-04 13:36 52.18351 0.13356 796 ft 72 kts 47°
2026-05-04 13:37 52.18658 0.13993 632 ft 71 kts 47°
2026-05-04 13:37 52.18975 0.14594 483 ft 69 kts 44°
2026-05-04 13:37 52.19300 0.15188 360 ft 73 kts 45°
2026-05-04 13:37 52.19519 0.15608 284 ft 73 kts 45°
2026-05-04 13:38 52.19948 0.16435 118 ft 68 kts 47°
2026-05-04 13:38 52.20241 0.17000 47 ft 55 kts 47°
2026-05-04 13:38 52.20444 0.17385 51 ft 36 kts 49°
2026-05-04 13:38 52.20561 0.17616 51 ft 21 kts 50°
2026-05-04 13:39 52.20646 0.17783 47 ft 17 kts 51°
2026-05-04 13:39 52.20726 0.17750 48 ft 10 kts 319°
2026-05-04 13:39 52.20762 0.17696 51 ft 4 kts 321°
2026-05-04 13:39 52.20771 0.17684 51 ft 0 kts 321°
2026-05-04 13:40 52.20782 0.17668 52 ft 3 kts 317°
2026-05-04 13:40 52.20799 0.17643 52 ft 5 kts 319°
2026-05-04 13:40 52.20850 0.17570 54 ft 13 kts 316°
2026-05-04 13:40 52.20931 0.17527 56 ft 13 kts 18°
2026-05-04 13:41 52.21007 0.17625 56 ft 15 kts
2026-05-04 13:41 52.21030 0.17608 56 ft 0 kts 254°